Theta_e
317 317 316 316 316 315 315 315 316 316 315 316 315 315 316 316 316 316 317 317 316 315 316 316 318 318 318 314 312 327 342 343 327 320 321 321 323 324 322 325 328 326 326 329 332 330 329
316 315 315 316 315 315 315 315 315 315 315 315 315 316 316 316 316 317 317 316 316 315 316 318 319 318 315 309 323 321 324 327 322 324 321 324 323 327 325 325 324 327 327 327 330 329 328
316 315 315 315 315 315 314 314 314 314 315 315 315 316 316 316 316 316 315 315 314 317 321 322 322 318 315 315 321 318 324 325 327 327 321 326 327 326 327 323 327 327 322 325 327 328 326
315 315 315 315 315 314 314 314 314 314 315 315 315 315 315 315 315 315 314 314 315 321 321 321 320 318 314 325 328 319 321 326 332 332 328 328 329 326 325 327 323 321 322 317 323 324 326
315 315 315 314 314 314 314 314 313 314 314 314 314 314 314 314 314 313 312 313 316 322 319 320 320 318 315 321 316 322 321 320 330 331 331 328 326 323 323 318 315 316 311 315 318 324 324
314 314 314 314 313 314 314 314 314 314 314 314 314 314 314 313 312 312 311 313 320 320 323 324 323 313 317 315 319 318 322 322 323 327 324 323 321 317 318 316 306 309 310 314 314 321 322
314 314 314 313 313 314 314 314 314 314 315 314 314 313 313 312 311 310 312 314 311 315 318 314 316 314 317 321 320 315 322 322 323 324 316 320 314 311 312 317 317 314 312 312 317 322 320
313 313 312 313 313 314 314 314 314 314 314 314 314 313 312 312 311 310 312 307 305 306 299 307 307 308 316 321 315 313 320 316 318 315 318 313 310 314 315 314 315 314 312 312 316 320 320
313 313 313 313 314 314 314 314 314 313 314 314 313 312 311 310 310 310 309 307 312 311 300 303 308 308 309 317 314 315 315 317 316 315 312 308 312 315 311 310 310 313 311 312 312 317 321
312 314 314 314 314 314 314 314 314 314 314 313 313 312 311 309 307 310 307 311 313 312 296 301 306 308 311 312 311 320 315 317 316 314 313 310 313 310 309 308 310 306 313 313 312 312 309
314 314 314 314 314 314 314 314 314 314 313 313 312 311 309 307 311 308 308 311 312 309 288 306 306 315 313 308 313 314 318 315 310 311 314 308 309 309 308 308 311 308 313 312 312 311 312
313 314 313 314 314 314 314 314 314 313 313 312 311 310 309 310 311 310 311 311 309 295 288 303 306 305 306 308 310 315 314 314 316 311 313 312 315 313 311 312 312 313 310 310 310 309 303
312 313 313 313 313 314 314 314 313 312 312 311 309 307 308 310 305 311 311 306 292 287 302 301 301 306 306 306 306 311 310 305 304 302 304 308 310 313 314 309 312 310 307 300 299 300 300
312 313 314 314 314 314 314 313 313 312 311 309 307 306 311 311 311 311 308 298 286 293 296 302 301 301 299 305 307 308 308 306 307 307 306 303 300 310 312 310 308 308 307 301 296 297 301
312 313 313 313 313 313 314 313 312 311 310 309 306 312 311 309 311 310 302 290 290 294 296 295 298 299 300 305 305 307 306 306 308 308 303 304 304 312 312 312 312 308 305 310 305 306 303
313 313 313 313 313 313 313 313 312 311 310 308 309 308 310 310 311 307 298 291 292 296 296 296 291 297 296 301 302 304 305 309 309 311 313 310 305 311 311 313 312 311 312 303 305 299 299
312 312 313 313 313 313 313 313 312 311 309 307 308 302 308 310 310 302 291 292 294 297 297 294 292 293 294 294 298 302 304 306 308 311 313 311 310 310 312 308 307 307 308 308 308 306 301
312 313 313 313 313 313 313 313 311 310 308 307 306 297 309 310 297 300 292 293 294 295 297 295 296 296 294 296 296 298 300 304 305 308 307 312 309 306 308 312 313 312 309 309 304 304 305
312 313 313 313 313 313 313 312 311 309 309 306 302 302 310 306 292 293 295 294 295 294 293 293 292 295 298 295 293 297 301 305 305 307 307 312 307 303 306 309 311 309 310 311 310 309 306
312 312 312 313 313 313 313 312 311 310 309 307 302 295 301 302 300 294 292 292 290 296 293 295 294 297 295 294 297 296 297 302 304 305 307 308 307 306 304 307 309 306 308 310 310 306 306
312 312 312 313 314 314 313 312 312 310 309 307 301 296 299 293 295 295 294 293 289 289 294 296 293 293 291 290 293 291 296 301 304 304 307 307 304 307 309 311 310 309 308 309 307 309 306
313 313 313 313 314 313 313 313 312 311 309 305 297 295 297 295 296 293 292 291 290 290 292 291 290 292 293 291 292 287 294 297 297 303 303 307 301 307 306 310 307 306 309 309 309 309 310
312 313 313 313 313 313 313 313 312 311 308 301 304 302 298 294 293 291 292 292 291 294 294 295 294 292 291 293 297 299 299 300 299 298 298 301 302 304 301 307 306 302 307 309 310 312 311
312 313 312 313 313 313 313 313 313 312 310 307 303 299 292 289 292 291 293 293 292 293 291 294 296 293 296 301 300 301 300 299 300 300 301 298 300 301 299 304 296 307 314 312 310 312 314
312 312 312 312 313 313 313 313 313 312 311 307 306 299 292 288 292 293 293 293 294 294 294 294 296 299 301 298 293 293 293 294 296 298 299 301 299 297 296 299 304 307 310 310 308 308 314
312 312 312 312 313 313 313 313 313 312 311 309 306 306 297 289 290 295 293 295 292 291 293 295 299 302 301 295 292 288 288 292 292 294 300 300 301 296 298 295 296 306 310 312 313 304 315
311 311 311 312 312 312 312 312 312 313 312 310 307 306 299 290 294 296 292 292 297 294 291 294 296 296 299 294 289 289 287 294 289 291 292 294 295 293 294 294 300 308 312 313 301 310 320
311 311 311 311 312 312 311 311 312 313 313 310 308 307 299 292 295 297 298 295 295 295 290 294 294 296 294 290 289 290 290 293 292 295 294 294 292 292 294 293 292 309 307 304 311 318 318
311 311 311 311 311 312 311 312 312 312 312 312 306 307 306 297 297 303 302 303 302 301 296 295 295 296 296 296 296 295 292 293 292 289 298 292 297 295 297 297 307 308 308 311 312 311 313
Wind_Speed
17 17 18 18 18 19 20 20 21 21 22 23 24 24 24 25 26 26 26 25 25 24 21 18 15 11 9 12 21 3 12 12 19 24 27 25 25 24 25 22 18 19 19 9 10 5 5
17 17 18 18 19 20 21 21 22 22 23 23 24 23 24 26 26 27 26 26 25 26 20 15 11 9 12 20 9 12 8 14 18 26 27 24 22 23 22 23 22 13 17 13 14 11 11
17 18 18 19 19 20 21 22 23 23 23 24 24 24 25 26 27 28 28 26 27 22 17 14 13 14 15 20 2 6 14 17 18 26 24 23 22 20 24 18 18 20 13 17 12 15 10
17 17 18 18 19 20 21 22 22 22 23 23 24 26 27 28 29 29 29 25 23 19 6 5 15 13 11 6 19 12 14 18 19 22 20 20 21 20 24 18 10 18 21 17 20 19 16
17 18 18 19 19 20 20 21 22 22 22 23 25 25 26 27 30 30 30 24 18 6 3 12 13 15 12 5 14 20 18 20 21 18 18 14 20 15 21 20 15 18 18 23 21 22 15
17 17 18 19 19 19 19 20 20 21 22 24 25 26 28 29 29 31 30 26 7 5 11 12 8 9 11 13 15 19 21 20 23 20 19 16 16 18 20 21 20 23 24 23 22 19 18
17 18 18 19 20 20 20 20 21 22 23 25 27 27 27 29 31 30 19 12 4 10 12 17 7 17 4 7 5 17 21 20 23 23 23 24 20 26 29 28 24 22 22 26 22 16 20
17 18 18 19 19 19 20 21 21 22 23 24 25 27 28 29 30 27 16 13 9 9 19 22 30 29 28 6 12 17 24 23 24 27 26 19 30 27 25 27 28 27 24 22 22 15 13
17 18 18 18 18 19 20 21 22 22 24 25 26 27 29 30 28 16 6 16 13 14 12 19 27 25 25 25 17 24 30 29 31 30 32 27 20 27 27 25 27 27 27 21 18 19 19
16 15 16 17 18 19 20 20 21 22 22 23 25 26 27 31 13 11 10 17 12 11 10 11 11 8 25 20 21 26 32 31 19 33 31 29 25 29 27 28 26 27 26 23 19 20 17
16 17 17 17 18 18 19 20 21 22 23 24 25 26 27 16 14 9 14 16 12 9 10 12 11 6 11 26 12 31 32 33 26 23 30 29 24 22 29 24 27 23 21 23 22 18 17
17 17 18 18 18 19 19 20 20 22 23 25 25 26 24 2 11 14 15 17 7 10 13 6 7 9 12 26 27 25 28 32 29 26 27 28 20 23 20 25 22 21 19 21 23 18 21
16 17 18 19 19 19 19 19 21 23 24 26 26 27 20 11 10 14 13 11 10 13 3 15 14 14 11 17 25 19 33 33 30 32 30 28 31 23 23 23 23 20 20 14 17 20 16
16 16 16 17 18 19 20 21 23 23 24 26 28 29 7 9 11 12 10 12 15 21 14 21 20 23 22 22 21 26 27 27 36 32 18 23 27 34 22 28 24 26 25 16 21 18 18
16 16 16 16 18 19 21 21 22 23 25 26 30 7 4 8 11 8 10 12 14 14 19 20 26 23 16 21 9 25 28 28 31 33 32 26 31 34 30 25 27 23 30 25 23 23 16
16 17 17 17 19 19 20 20 21 24 26 28 11 12 1 13 12 8 11 15 17 13 18 18 20 18 25 19 9 17 27 24 27 35 32 27 20 30 33 25 29 28 23 24 19 22 20
16 16 16 17 18 19 19 20 21 22 26 33 10 8 9 14 11 10 11 11 19 17 18 14 23 26 19 21 27 22 18 5 7 14 32 32 23 16 27 30 28 26 23 27 21 18 14
15 15 16 16 17 19 19 19 20 20 23 17 9 7 9 11 12 2 7 9 8 16 12 14 17 25 20 20 17 20 18 11 13 15 20 36 12 22 30 28 26 27 28 29 18 24 18
15 15 15 17 17 18 19 18 17 19 17 12 10 11 5 8 8 10 12 15 10 12 9 9 9 10 22 16 10 13 12 9 10 15 10 4 15 17 24 26 26 31 31 25 27 19 20
16 16 16 16 17 18 18 17 14 16 17 10 8 7 6 7 6 10 13 13 16 8 7 10 8 11 18 18 14 11 12 10 6 9 14 10 17 24 18 23 22 29 31 30 25 21 17
17 17 17 17 18 18 18 17 14 13 17 10 6 6 6 8 11 14 11 16 13 8 6 12 1 9 11 10 20 13 11 14 12 3 9 8 15 20 26 13 10 29 31 31 31 24 25
18 18 18 18 19 19 19 17 15 12 13 8 5 6 8 12 13 11 12 13 13 8 12 15 5 10 8 12 14 8 17 11 7 14 10 9 12 20 22 18 7 13 21 31 28 28 23
19 20 19 20 21 20 19 19 16 12 2 2 3 7 5 7 9 12 10 11 16 19 10 8 14 14 13 10 9 14 17 19 16 15 12 13 10 11 15 18 11 18 21 18 25 26 24
19 21 21 21 22 22 20 20 17 14 9 4 2 1 4 6 7 8 18 18 16 14 14 15 14 14 14 14 13 19 21 20 19 17 13 13 10 9 11 17 23 11 17 16 13 14 14
21 22 22 22 23 23 22 21 19 16 15 6 3 3 3 5 9 14 14 18 13 11 15 17 15 10 10 15 16 12 14 13 18 16 15 13 11 7 11 15 7 20 13 17 23 19 15
22 23 24 23 24 23 24 23 20 17 15 7 7 6 4 3 8 16 8 14 12 9 13 11 4 10 11 9 10 14 5 9 14 15 15 14 12 12 8 14 19 7 11 1 2 10 15
22 24 25 24 24 25 26 25 23 20 17 6 4 11 3 4 6 15 6 7 7 8 8 11 8 11 7 5 7 11 8 7 6 10 17 12 12 14 14 10 11 6 9 4 11 6 10
24 25 25 24 24 25 26 24 22 20 18 8 3 10 6 5 8 11 12 11 8 9 6 8 10 8 8 7 7 5 10 4 11 12 6 11 13 13 14 18 20 11 2 7 8 6 10
24 25 25 24 24 25 25 23 22 19 17 10 3 7 8 2 5 6 11 16 16 18 10 6 12 12 5 3 3 6 8 7 10 11 11 12 11 10 12 12 8 10 12 12 7 6 8
Wind_Direction
22 19 16 12 10 7 5 3 0 357 354 350 346 342 336 332 330 327 324 321 315 309 302 292 276 266 256 222 248 132 116 154 184 200 211 204 211 209 217 225 221 226 261 217 249 232 242
18 15 14 11 7 5 3 0 358 354 351 347 342 338 334 330 328 326 324 321 314 308 298 277 246 221 233 248 261 219 178 170 187 196 207 202 210 214 224 231 216 217 231 253 236 209 183
18 14 11 8 5 2 360 358 355 352 348 345 340 336 333 329 327 325 325 320 317 307 295 261 202 217 232 238 179 205 200 195 188 199 203 204 214 214 229 235 242 230 252 228 225 237 216
17 11 8 6 4 1 360 358 354 350 346 342 338 334 333 329 327 326 323 318 316 308 329 192 177 211 253 214 237 233 204 205 190 212 221 206 216 225 229 245 231 220 229 219 212 217 212
14 10 6 4 2 359 357 355 351 348 344 340 336 334 332 329 326 324 317 312 303 319 140 153 178 231 257 126 216 217 214 204 199 204 217 207 217 224 221 237 224 214 221 223 220 204 204
13 9 6 2 359 355 352 351 348 345 342 337 334 334 332 329 327 322 314 295 233 175 189 208 269 212 242 225 200 204 208 205 199 195 204 212 212 207 228 211 220 214 215 217 222 191 207
11 7 4 360 356 352 349 348 346 344 341 337 333 332 332 328 326 319 321 305 250 197 243 263 194 251 304 210 126 187 189 193 198 199 201 199 202 213 210 218 223 237 211 231 201 184 199
7 2 0 357 352 347 345 344 343 341 339 334 331 330 330 327 322 318 313 28 32 304 294 271 260 259 262 254 207 193 190 193 192 200 197 188 218 213 219 213 223 234 243 214 232 199 203
3 354 353 351 346 343 341 339 337 336 335 333 332 330 328 323 317 304 15 12 336 319 268 281 242 232 221 230 228 191 190 200 194 196 197 204 213 216 209 216 214 225 233 232 222 218 214
358 350 349 347 343 339 337 335 334 332 332 331 331 329 328 325 285 331 18 340 330 318 276 253 197 224 213 200 230 230 195 198 190 206 202 221 222 194 212 216 213 220 222 237 238 233 209
353 353 350 346 344 342 338 334 333 332 332 330 330 328 325 324 306 333 342 321 326 260 275 109 123 90 191 195 159 199 184 205 210 203 210 209 215 194 209 210 214 227 214 223 238 243 250
352 350 347 347 348 345 340 335 333 332 331 329 327 322 328 282 257 356 327 315 267 234 239 155 115 192 196 207 246 170 187 212 221 212 214 226 209 222 214 213 213 214 230 221 219 234 238
352 349 351 351 350 346 343 342 340 339 333 328 324 316 315 299 334 324 322 289 246 244 220 22 358 328 267 207 222 193 189 194 206 213 211 213 226 211 225 208 199 208 207 204 216 214 227
348 351 353 351 349 349 346 347 344 337 328 322 320 310 238 264 325 324 301 274 258 284 8 352 329 308 278 273 207 214 195 203 212 211 211 211 211 220 197 215 197 206 210 217 209 216 220
351 352 352 350 350 350 346 345 336 331 328 324 312 294 270 351 327 309 286 273 277 348 356 334 323 295 254 224 262 212 210 213 205 219 220 202 224 192 213 210 212 192 216 218 241 213 234
350 350 349 350 350 346 343 337 334 333 328 321 313 292 173 345 319 282 264 273 349 357 328 325 301 289 326 342 226 250 217 223 221 208 234 244 215 220 198 206 214 228 203 215 229 249 223
347 346 345 349 345 339 339 338 336 333 329 315 269 295 40 337 280 259 304 346 339 336 315 325 310 303 306 307 320 282 253 73 308 238 220 240 251 238 206 202 197 205 210 213 229 232 244
342 341 342 340 336 333 335 337 337 337 334 317 294 308 29 313 283 340 322 342 283 288 331 327 317 286 280 299 298 299 312 59 354 313 282 215 235 239 202 198 211 208 218 199 222 214 238
333 334 333 332 329 328 329 333 335 336 344 327 309 299 157 316 354 335 338 328 311 340 345 305 309 340 302 299 300 337 310 9 341 308 359 190 226 220 238 188 197 220 208 219 210 234 210
326 327 327 324 322 322 323 327 331 332 336 319 298 306 348 294 337 318 331 305 309 292 324 306 325 330 337 302 268 278 313 322 326 338 329 296 248 229 220 198 190 207 216 212 218 218 220
322 321 320 318 316 316 317 320 322 327 329 305 284 319 4 306 335 329 325 292 300 337 322 309 29 327 336 310 309 347 329 287 278 65 293 271 242 238 252 258 222 197 216 213 217 215 224
315 314 314 313 311 313 313 313 315 315 323 302 298 336 331 306 306 295 280 308 311 316 318 307 314 318 299 296 280 300 303 339 338 341 334 311 269 253 251 244 228 264 231 219 213 224 221
310 309 310 309 307 309 310 308 308 304 342 292 339 305 301 272 290 302 300 319 315 308 307 315 308 313 305 302 282 276 261 281 290 292 302 303 274 237 232 237 229 237 234 240 225 211 225
309 306 308 308 307 308 308 306 304 297 240 257 215 253 278 264 271 284 301 294 291 300 303 299 288 286 303 316 302 267 247 247 253 256 258 271 292 281 240 231 224 235 204 234 251 258 242
307 305 305 306 305 307 307 306 305 298 283 255 186 220 221 257 263 274 279 307 312 289 272 274 276 308 289 282 281 273 229 225 223 227 231 235 262 259 251 229 204 219 228 209 212 222 229
304 303 302 306 304 306 305 307 306 303 291 271 212 166 190 267 224 274 272 288 287 294 284 271 312 285 288 272 271 265 351 324 190 190 205 215 216 264 257 251 219 167 72 63 61 218 222
302 300 300 305 306 308 307 310 310 307 298 277 238 186 170 224 259 255 243 275 316 306 297 294 331 284 225 241 265 272 267 335 282 187 170 199 216 223 237 258 247 350 86 227 186 72 2
301 298 302 305 310 305 309 311 309 306 302 294 250 182 182 204 265 250 246 241 267 268 270 319 298 219 273 288 281 291 287 32 296 282 226 211 197 219 229 237 239 279 23 234 42 48 16
300 302 306 309 308 305 311 311 306 307 306 303 243 196 199 196 271 307 256 256 257 249 266 264 285 321 325 315 317 327 288 281 286 277 223 248 260 236 231 225 246 291 302 286 30 339 318